RH
52 52 52 52 54 54 52 51 51 49 46 49 53 50 50 54 49 49 57 56 50 49 47 43 44 46 48 50 50 50 50 50 49 48 46 43 41 40 40 41 44 47 49 50 53 53 51 51 50 48 47 47 49 52 54 54 54 54 56 59 63 64 64 65 67 67 69 71 71 71 72 71 73 75 74 73 74 73 71 70 70 70 68 66 65 65 68
53 52 51 53 54 53 52 49 48 48 47 47 48 47 51 57 56 54 58 58 53 49 45 43 43 43 45 48 49 50 49 48 46 45 42 40 39 38 39 40 41 44 46 48 50 51 51 50 50 48 46 44 44 48 52 54 53 51 52 54 59 62 62 64 65 64 66 69 68 68 70 70 72 73 72 73 74 72 70 70 72 72 71 69 66 64 62
51 51 52 53 52 51 52 48 42 44 50 51 49 50 54 59 58 55 57 60 54 46 42 44 46 45 44 47 49 49 46 44 44 42 39 39 39 37 38 40 41 42 43 45 47 49 50 50 49 47 45 43 43 46 49 51 51 50 50 52 55 57 59 60 61 61 64 65 66 66 67 68 69 70 71 73 73 72 72 75 76 76 75 72 69 68 66
47 52 53 51 51 53 54 50 43 44 51 52 49 48 52 54 56 58 59 54 47 42 41 45 47 46 44 44 45 45 44 43 43 41 40 40 39 37 36 38 41 42 42 44 47 49 48 47 47 46 44 43 44 46 47 49 50 49 49 51 52 53 55 56 56 59 61 63 64 65 64 64 65 67 68 69 70 70 73 75 76 78 78 75 72 72 72
42 47 49 50 53 52 49 45 41 42 47 48 46 46 49 51 55 57 52 43 41 43 42 42 45 45 43 42 41 42 43 42 40 40 40 39 39 38 37 38 39 42 42 43 46 48 47 46 47 46 45 45 47 47 46 47 49 47 47 50 51 51 52 53 55 58 60 61 63 65 64 62 63 64 65 66 66 66 69 71 72 73 74 75 76 76 74
39 40 43 48 50 45 41 40 39 41 44 45 45 45 44 48 51 48 42 39 41 42 40 41 43 42 40 40 39 38 40 40 41 42 41 40 39 40 40 39 38 40 43 44 45 47 46 46 47 47 47 49 49 46 45 45 45 45 47 49 50 51 51 52 53 56 58 60 63 66 64 60 61 62 63 65 67 67 67 67 68 68 68 69 71 72 74
36 33 34 41 45 42 41 43 42 42 43 44 45 43 39 42 46 45 43 41 39 38 37 37 39 39 39 39 37 37 38 39 41 43 42 41 41 41 40 39 37 38 42 45 46 46 47 48 46 45 47 50 49 46 44 44 43 44 46 46 47 50 52 51 51 54 58 61 63 65 64 60 60 63 65 68 72 71 70 70 70 70 70 67 64 65 69
37 34 32 37 42 42 46 51 50 48 46 46 48 45 38 36 40 43 43 39 36 37 37 37 39 41 42 42 40 39 40 40 41 43 43 42 41 40 38 38 38 37 38 41 45 47 48 47 47 46 48 50 49 45 45 44 43 44 45 44 44 48 50 49 51 55 59 62 62 64 65 62 61 64 69 73 75 75 75 75 74 75 76 74 70 67 66
40 35 31 33 36 40 47 52 49 44 44 44 44 41 35 32 32 36 38 37 36 37 38 40 43 43 43 44 41 38 39 41 41 41 41 40 40 39 38 38 41 41 40 41 45 48 46 46 47 48 49 49 48 47 47 46 44 45 46 44 44 47 48 50 53 58 62 62 63 65 67 66 65 68 73 76 77 78 78 78 77 77 78 77 75 74 73
40 37 35 34 35 36 39 43 42 41 42 40 38 40 37 32 28 29 33 35 36 38 41 44 44 44 46 43 36 35 39 40 40 40 39 38 38 38 37 38 39 42 44 44 45 48 47 45 45 47 48 49 48 46 46 46 47 48 47 45 45 46 49 52 57 61 64 64 66 67 68 68 70 73 76 78 79 80 82 82 82 82 81 79 76 75 74
38 39 38 36 36 34 34 39 42 42 40 37 39 43 39 30 26 27 30 33 36 37 41 44 43 45 43 35 28 33 39 38 37 38 36 34 35 36 35 35 34 37 43 45 45 47 46 43 43 46 48 51 50 47 46 47 48 48 47 47 48 47 50 56 60 63 65 66 68 67 66 68 73 76 78 80 82 85 87 87 85 84 83 83 81 79 78
37 40 39 33 32 32 35 40 39 36 38 40 44 44 37 29 28 28 29 33 36 36 38 41 41 40 36 32 32 38 40 37 35 35 32 31 32 33 33 34 34 35 40 43 43 43 44 41 41 44 47 49 50 48 47 48 48 47 47 49 48 48 51 58 61 62 64 67 67 65 66 71 76 78 81 83 85 87 88 88 87 86 85 84 84 84 84
37 41 41 34 30 32 39 41 36 35 41 46 45 40 33 30 31 31 31 33 35 36 38 38 36 33 34 38 40 40 40 38 35 34 33 33 33 32 32 36 38 34 34 38 40 40 41 39 40 44 46 48 49 47 46 49 49 47 48 50 48 48 52 57 61 62 65 66 65 64 69 75 78 79 81 84 85 87 88 88 88 89 87 85 84 85 85
35 35 37 33 30 37 44 42 38 41 44 41 37 35 32 30 31 34 34 34 34 37 39 37 33 31 34 39 40 39 39 37 32 30 31 33 34 33 35 40 41 36 34 38 40 39 39 38 40 44 46 47 49 46 44 49 49 47 49 50 47 48 53 59 63 65 65 65 63 65 70 75 77 78 80 82 84 85 86 87 87 88 86 85 85 84 82
34 35 39 38 35 40 47 44 43 46 43 33 29 31 32 33 33 34 35 34 36 37 36 35 34 33 35 38 38 38 37 34 30 29 31 32 33 33 34 36 38 38 37 38 38 37 36 38 41 45 47 49 48 43 43 48 49 48 51 51 47 49 57 63 64 64 64 62 62 67 72 74 76 77 78 81 83 84 85 85 84 84 83 82 82 80 78
33 34 37 35 32 38 42 38 35 37 34 29 28 29 30 32 33 33 33 34 36 37 34 32 33 33 35 37 38 38 36 33 32 32 32 33 33 33 33 35 39 41 39 38 39 39 38 41 44 46 49 50 46 41 43 47 48 49 51 51 49 52 57 62 64 63 62 60 61 66 72 73 74 74 76 78 81 82 84 84 81 80 79 79 78 77 75
31 30 31 31 32 36 37 33 30 32 32 31 31 30 28 31 32 31 31 33 36 36 34 31 32 33 34 35 36 36 35 34 33 32 33 34 34 34 35 38 42 42 38 37 39 39 39 42 46 47 49 48 44 41 42 44 46 49 50 50 51 54 56 60 62 61 61 61 61 64 68 70 70 72 73 74 77 79 81 82 80 79 78 77 77 75 73
32 31 31 33 34 34 34 33 33 37 38 35 34 31 29 29 30 30 30 32 34 35 34 32 32 33 33 33 34 34 34 33 33 33 34 35 35 37 38 39 41 40 38 37 38 38 39 41 44 47 48 47 44 40 39 42 45 48 49 51 53 55 57 60 61 59 60 62 61 61 64 65 66 69 70 70 72 76 79 80 81 80 78 77 76 74 73
39 35 31 32 34 34 34 32 32 36 39 37 34 32 28 28 30 30 30 31 32 34 35 34 33 32 32 33 34 33 33 34 34 35 36 36 37 39 39 39 41 41 39 38 37 37 39 40 43 45 44 42 41 39 39 41 43 46 50 52 54 55 56 58 59 58 60 62 61 59 60 61 61 63 65 67 70 75 80 83 84 83 81 80 79 77 75
38 34 30 32 34 35 35 33 30 31 34 35 35 34 33 32 31 30 31 32 33 33 34 33 33 33 32 33 34 34 33 34 34 35 36 37 37 39 40 42 44 43 41 39 38 38 38 40 43 43 41 38 37 36 38 40 42 46 50 52 55 56 55 57 58 57 56 59 59 57 58 59 58 58 61 65 69 72 79 86 88 87 85 84 84 83 81
34 31 30 31 32 32 32 32 31 29 30 32 34 36 37 37 33 31 32 34 33 32 32 31 32 34 33 32 33 34 34 34 35 35 36 37 38 39 41 44 46 46 43 41 39 39 39 40 43 42 40 38 38 38 38 38 40 46 50 52 58 58 54 53 56 56 55 56 56 55 56 57 56 56 60 65 68 71 79 86 89 90 90 87 85 86 86
33 30 30 29 30 28 25 26 30 30 30 33 34 35 37 36 33 32 34 35 34 34 32 31 31 33 33 32 33 34 34 35 35 35 35 36 38 39 41 44 47 47 45 43 42 40 39 40 43 42 38 37 37 37 36 36 40 46 49 51 55 55 50 48 50 52 54 55 54 55 55 54 54 55 56 60 62 67 75 83 86 88 89 88 87 89 89
30 28 28 28 30 28 24 27 31 33 33 36 37 36 35 33 32 32 32 34 37 37 35 33 32 32 31 32 33 35 35 35 35 35 36 36 37 38 41 44 46 46 46 45 44 41 39 40 43 41 37 35 36 36 34 35 39 43 45 47 49 50 49 48 49 51 54 54 54 54 53 52 52 51 50 52 54 55 62 73 81 83 84 85 86 89 89
31 28 27 29 30 29 28 32 36 37 37 37 36 34 32 31 31 32 31 32 33 33 33 34 33 31 31 32 33 34 35 35 35 36 37 37 38 40 41 43 44 45 46 45 43 40 38 38 40 39 35 34 35 36 35 35 37 41 44 45 46 47 49 51 52 52 50 51 52 52 51 49 49 48 47 48 48 48 52 61 71 76 79 79 80 82 85
32 29 29 31 30 28 30 34 36 38 40 39 36 35 33 31 31 31 31 31 30 29 30 32 32 31 32 32 33 35 36 35 36 39 39 39 41 44 43 43 44 45 45 44 42 38 36 37 39 39 35 33 35 37 36 35 37 40 41 43 46 49 51 52 53 51 49 48 49 48 48 48 48 47 47 46 46 49 52 55 59 65 69 71 73 75 78
30 29 33 35 32 30 32 32 31 34 39 41 40 38 35 34 34 33 32 30 29 28 28 29 30 31 32 32 34 37 38 38 42 45 43 39 42 46 45 43 43 44 44 44 42 39 39 39 40 40 36 32 34 37 37 36 38 40 40 41 43 46 49 51 52 51 49 48 47 46 48 49 48 47 46 46 48 51 51 51 52 54 57 61 65 68 73
28 32 37 38 35 32 31 28 28 32 37 40 40 37 35 37 39 37 33 31 30 31 31 29 29 32 36 37 38 40 42 43 45 47 45 41 42 45 44 43 43 43 45 45 44 43 44 42 39 38 36 33 35 38 37 37 40 41 39 39 39 40 45 51 55 55 52 49 47 48 48 47 46 45 45 47 48 47 46 48 48 46 48 53 58 62 68
26 31 36 36 32 29 28 28 30 32 35 38 38 35 36 40 41 39 36 36 35 35 35 35 35 36 39 42 42 41 43 44 44 44 44 42 42 43 44 44 44 43 45 47 45 44 46 44 39 37 36 34 35 37 36 37 41 41 38 36 34 33 39 48 54 54 52 49 48 48 47 47 46 46 47 48 46 44 43 45 45 44 45 48 51 56 61
25 28 32 32 28 26 28 31 32 30 31 36 38 36 37 40 41 38 36 35 34 35 35 37 40 40 39 41 42 41 41 42 42 42 42 41 42 44 45 46 46 45 47 48 45 44 45 43 39 37 37 35 35 36 35 37 41 41 38 36 31 26 28 37 45 48 50 51 52 53 53 52 51 48 46 44 43 43 42 42 43 45 46 45 46 48 51
23 24 28 29 27 27 30 31 29 26 27 33 36 35 35 35 36 34 32 31 31 33 34 35 40 42 40 40 42 42 40 40 41 42 42 42 43 46 48 49 49 48 48 48 46 44 44 42 38 37 36 34 34 35 35 37 40 41 41 40 37 30 27 28 33 40 46 49 50 53 53 51 48 46 44 43 44 44 42 41 42 43 42 41 42 44 44
22 23 27 29 28 29 30 30 28 27 28 30 34 35 34 34 34 32 30 29 31 32 32 34 38 42 42 41 41 42 43 44 43 43 44 46 48 50 52 51 48 45 44 44 44 42 42 41 39 37 36 35 34 34 36 39 39 39 40 40 38 35 30 23 21 28 39 45 46 48 48 47 44 44 45 44 44 42 39 39 40 40 39 38 39 40 43
24 26 31 33 32 31 31 30 29 30 30 32 35 36 33 33 34 32 30 31 32 33 33 35 38 40 41 42 42 43 45 45 45 46 47 49 51 54 55 54 50 46 43 41 41 41 42 42 40 38 38 36 34 33 36 39 39 37 36 36 34 33 32 28 26 30 39 46 47 47 47 46 44 43 44 44 44 42 40 40 40 38 38 39 38 38 43
27 29 31 33 33 34 33 31 30 29 30 32 35 34 31 31 33 32 31 32 34 34 35 36 37 38 40 43 44 45 45 45 44 45 47 47 49 53 56 56 52 48 45 43 41 42 43 43 42 41 40 37 35 34 36 39 39 37 35 34 33 32 32 33 32 33 36 40 43 44 45 45 43 43 43 43 44 43 42 42 41 38 38 39 38 38 43
28 28 28 28 29 31 31 30 29 28 27 28 31 32 31 32 33 33 33 34 35 36 36 36 36 38 41 43 43 44 44 41 37 37 39 41 43 49 55 57 55 52 50 48 47 45 44 44 45 45 42 38 36 36 38 39 38 35 34 35 35 35 34 33 34 35 35 35 36 40 43 46 46 47 46 45 45 45 44 44 44 42 40 39 37 37 43
27 27 26 25 26 27 26 26 27 27 26 27 29 31 33 33 34 35 36 37 37 37 37 36 36 37 40 40 39 39 38 35 30 31 34 35 38 45 52 54 53 51 50 49 48 47 47 47 48 46 44 41 39 39 40 41 38 35 35 36 36 37 36 34 33 34 33 33 33 34 37 40 42 43 44 44 44 45 45 46 46 45 43 41 39 37 39
28 28 28 26 26 26 26 27 28 27 27 29 30 31 33 35 36 38 40 40 40 38 37 36 36 37 38 37 34 33 33 32 32 33 34 34 38 44 47 45 45 44 44 44 44 45 47 48 46 43 40 40 40 40 40 39 38 37 37 36 36 37 36 35 35 34 34 34 35 34 35 38 40 42 44 45 45 43 43 43 43 44 43 41 39 39 39
30 30 30 28 28 29 30 30 29 29 30 32 32 32 34 36 37 39 41 42 41 40 39 38 37 36 35 33 31 31 32 33 33 34 34 36 40 43 42 41 42 42 41 39 38 39 42 45 42 37 33 34 36 36 36 33 33 34 36 36 36 35 34 33 33 33 33 33 35 35 36 39 41 42 44 45 45 45 45 43 41 41 41 40 40 41 41
32 31 32 32 31 33 34 33 33 33 33 33 33 33 35 38 40 42 43 42 42 43 41 38 36 34 32 32 32 32 32 33 34 35 35 38 41 41 39 38 38 37 36 36 36 36 39 42 42 39 36 35 34 34 34 31 29 30 33 34 33 34 34 33 32 33 32 32 33 34 35 37 37 37 38 38 39 40 41 41 41 40 39 38 38 38 39
34 34 36 36 35 35 35 36 37 37 35 33 34 36 40 44 45 45 43 43 44 45 41 36 33 32 32 32 32 31 31 33 35 35 35 38 42 43 39 37 37 36 36 37 38 39 41 43 44 44 43 40 37 37 37 36 33 32 34 34 34 33 33 33 32 33 33 33 33 34 34 35 35 36 36 36 35 36 37 39 41 42 41 40 38 37 38
37 37 38 37 36 36 36 35 35 35 35 36 37 40 43 45 45 44 42 43 45 44 40 35 33 32 31 31 30 30 30 31 33 34 35 40 45 45 40 37 37 39 39 39 39 40 41 41 42 43 43 41 39 39 40 40 39 38 37 37 36 35 34 34 34 34 34 34 34 35 36 36 36 36 37 37 38 38 38 38 39 41 42 41 40 38 38
37 38 38 37 36 36 34 32 32 35 37 38 40 42 43 43 41 39 38 40 43 43 39 35 32 30 29 29 30 30 30 31 34 37 39 40 41 40 36 32 32 36 40 40 40 39 38 38 39 41 42 40 40 42 43 43 43 42 41 40 39 37 37 36 36 36 36 35 35 35 36 36 36 37 37 38 39 39 39 38 39 39 40 39 38 37 37
39 39 39 38 36 35 33 32 33 36 37 37 39 43 45 43 40 38 35 36 40 42 39 36 35 34 33 32 31 31 31 34 38 43 45 43 39 36 32 30 32 39 45 46 44 43 42 41 42 44 45 45 46 46 46 45 44 44 43 42 41 41 40 40 39 39 39 39 38 38 39 39 39 39 39 40 40 40 40 39 39 39 40 40 40 39 39
41 40 39 36 34 33 33 33 33 32 34 35 38 41 44 44 42 39 37 37 39 39 36 36 38 38 38 37 36 35 36 39 43 47 49 49 46 43 38 36 38 44 47 48 48 47 45 45 45 47 47 48 47 46 45 45 46 46 45 44 43 43 43 43 43 43 42 42 42 42 42 42 43 43 43 43 42 42 42 41 41 40 41 41 41 41 42
42 39 35 32 32 33 33 33 30 27 28 33 37 41 43 44 42 38 36 35 36 36 35 35 37 38 38 38 37 36 36 38 41 45 46 44 44 47 48 47 46 47 47 49 50 50 48 47 49 49 48 46 45 44 44 45 47 48 47 47 47 47 47 47 46 46 46 46 47 47 47 47 47 46 46 46 46 46 45 46 45 45 44 44 44 45 44
40 36 31 31 33 33 30 29 28 26 26 30 36 40 40 39 39 38 37 35 35 35 36 35 36 37 38 39 39 39 38 37 40 44 42 37 36 44 51 52 52 51 50 49 50 50 50 49 48 47 45 45 46 47 49 50 51 50 50 50 51 51 51 50 50 50 50 50 50 50 49 49 49 49 49 49 49 49 50 50 51 51 51 49 48 48 48
38 38 36 35 34 31 28 27 29 30 30 30 34 37 38 37 37 38 38 35 34 35 36 37 37 38 39 39 40 41 41 40 43 46 45 41 42 49 54 54 53 52 51 49 49 51 51 50 50 50 51 53 54 54 54 54 54 53 53 54 54 53 52 52 52 52 52 52 52 52 53 53 53 52 52 52 53 53 54 55 55 55 55 53 52 52 52
37 39 39 36 33 34 36 38 38 37 35 32 30 31 34 37 38 38 37 37 37 38 39 41 41 41 42 42 39 37 35 35 39 45 48 48 50 54 54 51 48 49 49 51 53 55 56 56 57 57 56 56 57 56 55 55 55 54 54 54 54 53 52 52 52 52 52 52 53 54 54 54 53 52 52 52 52 52 53 54 55 54 54 55 56 56 56
37 37 36 36 38 42 44 43 39 36 34 32 28 26 29 35 38 40 41 43 43 43 44 45 45 46 48 46 43 40 38 35 36 42 47 49 50 52 52 51 50 52 54 57 59 59 58 57 56 54 52 52 54 54 53 52 53 52 51 51 51 50 49 49 50 50 50 51 52 52 51 50 50 49 49 49 49 49 49 51 52 52 52 53 55 56 57
37 37 37 40 43 43 42 39 35 32 30 29 28 26 27 32 37 40 42 43 42 41 42 45 47 50 50 46 43 45 48 45 42 44 48 50 50 52 54 56 56 55 57 60 60 57 53 51 49 47 48 51 52 51 50 51 52 52 52 52 51 51 51 53 55 56 56 55 55 54 53 51 50 50 50 50 50 51 52 52 53 54 55 57 58 59 60
38 39 40 39 39 39 38 35 32 29 28 27 27 27 30 33 34 33 35 38 38 37 39 42 46 49 49 46 46 50 54 53 51 51 53 54 55 56 57 56 55 53 54 57 58 56 54 53 51 49 51 54 54 53 53 54 53 52 54 56 56 55 55 57 60 60 59 58 57 56 55 54 54 54 56 56 56 57 59 59 59 60 61 60 58 56 55
38 36 34 32 33 35 35 32 29 28 28 27 28 30 34 34 30 27 30 36 37 37 38 41 44 47 49 50 52 55 56 55 55 55 55 55 57 57 55 54 54 54 54 56 56 56 57 58 56 52 51 52 53 54 57 57 55 54 57 59 60 59 58 59 60 60 60 61 61 60 58 59 60 61 62 62 62 62 63 63 62 61 60 57 54 53 55
37 35 33 32 32 34 35 34 33 32 32 31 31 33 34 31 27 27 34 39 38 35 37 42 46 51 54 55 56 58 58 57 56 56 55 54 54 53 53 53 54 55 56 57 56 55 56 57 56 54 53 52 52 54 57 58 58 58 58 60 62 62 60 61 65 68 68 68 67 65 62 63 65 65 64 62 62 63 64 63 62 62 62 60 60 63 67
Wind_Speed
1 1 2 2 2 2 2 3 4 4 5 5 6 8 6 6 6 3 5 4 3 2 3 7 7 8 7 7 6 5 3 3 3 2 2 1 1 1 2 3 4 5 5 6 7 8 8 9 9 9 9 9 9 9 9 10 10 10 10 9 9 8 8 8 7 7 7 7 7 7 8 8 8 8 8 8 8 7 7 6 6 6 6 6 7 8 9
2 3 3 3 3 3 3 3 4 4 6 6 7 8 7 6 7 6 6 5 4 2 2 5 6 6 6 5 5 5 5 5 4 3 2 1 1 1 2 3 4 5 5 6 6 7 8 9 9 9 9 10 10 10 10 10 10 11 11 10 9 8 8 8 8 8 7 7 7 7 8 8 8 8 9 8 9 9 8 8 8 8 8 8 9 9 9
2 2 3 4 4 5 4 3 2 3 5 5 6 7 5 5 7 6 5 5 3 1 3 4 6 5 5 5 5 5 5 3 3 3 2 1 1 1 1 2 3 4 6 6 7 7 7 8 8 9 9 10 10 11 10 10 11 11 11 11 10 9 9 8 8 8 8 7 7 7 7 8 8 8 9 9 9 9 9 9 9 9 9 10 11 11 11
2 1 3 3 4 6 6 4 2 2 4 4 3 4 4 4 4 3 4 5 2 4 5 4 6 6 6 5 5 4 4 3 3 3 2 2 1 1 2 2 3 4 5 6 7 7 7 7 8 9 9 9 10 11 11 11 11 10 10 10 10 10 9 9 9 9 8 8 8 8 7 8 8 9 9 9 9 10 10 10 10 10 11 11 12 12 12
2 2 2 2 3 4 3 1 1 1 2 3 3 2 3 4 3 3 3 2 3 5 5 5 6 6 6 5 4 4 4 4 4 4 3 2 1 1 2 3 3 3 4 6 7 7 7 7 8 9 9 9 10 10 10 10 10 10 10 9 10 10 10 10 10 9 9 9 8 8 8 8 9 10 10 10 10 11 11 12 12 13 13 13 13 13 14
1 1 2 3 3 2 2 4 1 1 2 3 3 3 3 4 5 4 4 3 3 3 5 5 5 4 4 4 4 4 4 4 4 4 3 2 1 1 2 3 3 3 4 5 6 7 7 8 8 8 8 9 9 9 9 10 10 10 10 9 9 10 10 10 10 10 10 9 8 8 9 9 10 10 11 11 11 12 12 13 13 14 15 15 15 16 15
3 2 3 4 2 2 3 3 0 2 3 4 5 6 5 5 7 7 6 3 3 5 5 4 3 3 2 2 3 4 4 4 4 4 3 2 2 2 2 2 3 3 3 4 5 6 7 7 7 7 8 8 9 9 9 10 10 10 10 9 9 10 10 11 11 11 11 10 9 9 9 10 10 11 11 12 12 13 13 13 14 14 15 15 16 16 16
3 3 3 3 2 3 3 1 1 1 2 3 5 6 5 6 7 8 7 6 5 6 5 4 2 1 2 2 3 4 5 5 5 4 3 3 2 2 2 2 3 4 4 4 5 5 6 7 7 8 8 8 8 9 9 9 10 10 10 10 10 11 11 12 12 12 11 11 10 10 10 10 11 11 11 12 12 13 13 14 14 14 15 15 15 16 16
2 4 3 2 1 2 3 1 3 5 3 3 4 5 4 4 6 7 7 6 6 7 6 4 4 2 3 4 4 5 7 6 5 5 4 3 3 3 3 2 3 5 5 5 4 5 6 7 7 8 8 8 9 8 8 9 10 9 9 10 11 11 12 12 13 12 11 12 12 12 12 12 12 12 13 13 13 13 13 14 14 15 15 15 15 15 16
1 4 4 2 3 3 3 3 4 5 2 1 3 5 4 3 4 6 8 8 7 8 7 6 5 4 4 4 3 6 8 7 6 6 5 4 3 3 3 3 4 4 4 5 4 5 6 7 7 8 8 8 9 8 8 9 9 8 9 10 11 11 11 12 12 11 11 11 12 12 13 13 13 14 14 13 13 12 13 14 14 15 15 15 15 15 15
3 5 5 3 3 2 2 4 6 6 4 2 3 6 2 4 2 5 8 9 8 8 8 7 6 4 5 4 1 6 8 7 7 6 5 4 3 3 3 4 4 4 4 5 5 5 6 7 7 7 7 7 8 8 9 9 8 8 9 10 11 11 11 11 10 10 10 10 11 12 13 13 13 14 13 12 12 11 12 12 13 13 13 14 14 14 14
4 4 5 4 3 2 2 4 6 6 5 4 5 4 1 4 1 3 7 9 9 9 8 7 6 5 4 2 3 6 7 7 6 5 4 3 2 3 3 2 3 4 4 4 5 6 5 6 6 6 7 7 7 8 8 8 8 8 9 10 11 11 11 10 10 9 9 9 11 12 13 13 13 13 13 12 11 11 11 11 12 12 12 13 14 14 14
4 5 5 5 3 1 4 5 7 8 6 5 5 2 4 4 1 2 5 8 8 9 8 6 6 4 1 4 4 5 7 6 6 5 3 2 2 3 2 1 2 5 5 4 5 6 5 5 6 6 6 7 7 8 8 8 8 9 10 10 11 11 11 10 10 9 8 9 11 12 12 13 13 13 12 12 12 12 11 11 12 12 13 13 14 13 13
5 4 5 6 3 2 5 6 8 7 5 2 1 3 5 2 1 3 5 7 7 8 8 6 4 2 3 4 2 5 6 6 5 5 4 4 3 3 2 1 2 4 6 4 4 5 4 4 5 5 6 8 8 8 8 8 8 9 9 10 11 11 11 10 10 9 9 10 11 11 12 13 13 13 13 12 12 11 11 12 12 12 12 12 12 12 12
5 4 4 6 3 3 9 9 7 6 5 3 4 4 4 2 2 3 4 6 7 8 8 7 5 3 3 3 4 5 6 6 5 3 3 4 3 3 3 2 2 2 5 4 3 4 4 4 4 5 6 7 8 8 8 7 8 8 9 10 10 10 10 9 9 9 8 9 11 11 11 12 13 13 13 13 12 11 11 12 12 12 11 11 11 12 11
4 4 4 2 1 6 12 9 4 6 6 1 2 2 3 3 3 3 4 5 7 7 7 7 6 5 4 4 5 5 6 5 5 4 4 4 3 3 2 1 1 2 4 3 2 3 3 3 4 4 5 7 8 8 8 7 7 8 7 8 9 9 8 8 8 8 8 8 10 10 11 12 12 13 14 13 12 12 11 11 11 11 11 11 11 12 11
4 5 3 2 5 7 11 8 3 3 5 3 1 2 1 3 4 3 3 5 7 8 7 6 6 6 5 5 5 6 6 6 6 5 5 4 4 3 2 2 2 3 3 2 2 3 3 3 4 4 5 6 7 7 7 6 7 7 7 8 8 9 8 8 8 8 8 8 9 9 10 11 11 12 13 14 13 12 12 11 11 11 11 11 11 12 12
3 6 5 3 2 5 9 9 6 2 3 4 4 4 3 2 4 3 3 4 7 8 7 6 6 6 5 6 6 6 6 6 6 6 5 5 5 4 4 3 4 5 5 4 3 4 4 4 4 5 5 6 6 7 7 7 7 6 7 8 8 8 8 7 7 8 8 7 8 8 9 10 10 10 11 12 12 11 11 11 11 11 11 12 12 12 12
3 4 4 4 5 5 6 8 8 7 6 5 5 6 5 2 5 5 4 4 6 8 7 7 6 6 6 6 6 6 6 6 6 6 6 6 6 5 5 5 5 5 6 5 5 5 6 5 5 5 6 6 6 6 7 7 6 6 6 7 7 8 7 7 7 7 7 7 7 7 7 8 9 9 10 11 11 10 10 10 11 11 11 11 11 11 12
6 6 3 3 3 4 5 6 6 7 9 8 7 7 5 3 5 6 6 6 6 7 7 7 7 6 7 7 6 6 6 6 6 6 7 7 6 6 5 6 7 7 7 7 6 6 6 6 5 5 6 6 5 6 6 6 6 6 6 6 6 7 7 6 6 6 6 6 6 6 6 7 7 8 9 9 10 10 9 8 9 10 11 11 11 12 13
7 8 7 6 6 6 7 8 6 6 7 9 10 9 7 6 7 8 8 7 7 6 7 7 7 7 7 7 7 7 6 5 6 6 6 6 6 6 6 7 8 9 9 8 7 7 7 6 5 5 6 5 5 5 6 6 5 5 6 6 6 6 6 5 5 6 6 5 5 5 5 5 6 6 7 8 8 8 7 7 8 7 8 9 9 10 12
7 6 5 5 5 6 4 5 5 5 5 7 9 11 10 9 9 9 9 9 8 8 7 7 7 7 7 7 8 8 6 6 7 7 7 7 7 7 7 7 9 10 10 9 9 9 8 6 5 5 5 5 4 4 4 5 4 5 6 6 6 5 4 4 5 6 6 5 5 5 5 6 6 6 7 8 8 8 7 8 9 7 6 7 8 8 9
7 5 4 3 4 6 3 3 4 3 4 6 9 11 12 12 11 10 10 10 9 9 9 9 9 7 7 8 9 8 7 8 8 7 7 7 7 7 8 9 10 10 11 10 10 9 8 6 6 5 5 4 4 4 4 4 4 5 5 6 6 5 4 4 5 6 6 5 5 6 6 6 7 7 7 7 8 10 11 10 10 10 8 9 10 10 10
8 7 7 4 5 7 3 3 4 3 4 6 8 9 11 12 11 11 10 10 9 9 9 10 11 10 9 9 9 8 8 9 9 9 9 9 8 8 9 9 10 10 10 10 9 8 7 6 6 5 5 4 4 4 4 4 4 5 5 6 6 5 5 4 4 5 6 5 6 6 6 6 7 7 7 7 7 10 12 12 12 12 12 12 13 13 14
10 9 6 5 7 7 3 2 2 3 5 6 6 7 9 11 12 12 11 10 10 9 8 9 11 12 11 10 10 10 9 10 10 10 11 11 11 10 10 11 11 11 10 9 9 8 7 6 6 6 5 5 4 4 4 4 4 5 6 6 6 6 6 5 5 6 6 5 6 6 6 6 7 7 8 8 8 9 10 10 11 12 12 13 15 16 17
11 8 4 3 6 6 4 4 6 6 8 8 7 6 8 11 12 13 13 12 12 11 10 9 10 12 13 13 12 12 12 11 10 10 11 12 12 12 12 13 13 12 11 9 9 8 7 7 7 7 6 6 5 4 4 4 4 5 6 6 7 7 6 6 7 7 6 5 6 6 6 6 7 7 7 8 8 9 9 9 10 10 10 11 13 15 18
9 7 6 6 7 8 8 8 6 4 6 9 8 7 8 10 11 12 12 12 12 12 12 11 10 11 12 13 12 13 13 12 10 11 12 13 14 14 14 14 13 12 11 10 9 8 8 8 8 8 7 7 6 5 5 5 5 5 6 6 7 8 8 8 8 8 6 6 6 6 6 7 8 8 8 8 8 9 9 9 10 10 10 9 10 13 16
7 7 8 9 10 9 7 6 4 2 3 6 8 7 7 8 9 10 10 11 12 12 12 12 12 11 11 11 12 12 12 12 12 13 13 14 14 14 13 13 13 12 11 11 10 9 8 9 9 8 8 7 7 6 6 6 5 6 6 6 7 7 7 8 8 7 6 6 6 6 6 8 8 8 7 8 8 9 9 9 9 10 10 9 9 11 13
8 8 8 10 11 9 6 4 5 6 6 6 6 7 8 8 9 9 10 11 12 12 12 12 13 13 12 11 11 11 11 12 13 13 13 12 12 12 11 11 12 11 11 11 10 9 9 9 8 9 8 7 7 7 7 6 6 6 6 6 6 6 6 6 6 7 7 7 7 7 8 9 9 8 7 8 8 9 9 9 9 10 10 10 10 11 10
10 10 10 10 11 12 10 9 9 10 8 7 7 8 9 9 10 10 11 11 11 11 12 13 13 13 12 12 12 11 11 10 10 10 10 9 9 9 9 10 10 10 11 11 11 11 10 9 9 9 8 7 7 7 7 7 7 7 7 7 6 6 6 7 7 8 8 8 8 8 9 9 8 8 8 8 8 8 9 9 9 10 10 10 10 11 10
9 10 11 11 11 13 13 12 11 11 9 8 9 9 9 10 11 12 12 11 11 11 12 13 12 12 12 12 11 10 9 8 7 7 7 7 7 8 9 10 11 11 11 12 11 11 10 9 9 8 8 7 7 7 8 8 8 7 7 7 7 7 7 8 8 9 9 9 9 9 9 9 9 9 9 9 9 9 9 9 9 10 10 10 10 10 10
9 9 10 10 10 12 13 12 11 11 11 10 10 10 10 11 12 12 12 11 11 12 12 12 12 12 11 10 9 9 8 7 6 6 6 6 7 7 8 9 10 10 11 11 11 10 9 9 9 8 8 8 7 8 8 8 8 8 8 7 7 7 7 8 9 8 9 9 10 9 9 9 9 9 9 9 9 10 10 10 10 11 11 11 11 11 9
11 10 10 10 10 10 11 11 11 11 11 10 10 10 10 9 10 11 11 11 12 12 12 12 12 12 10 9 9 9 8 7 6 6 6 6 6 7 8 9 9 9 10 10 10 10 9 9 9 8 7 8 8 8 8 9 9 9 8 8 7 7 7 9 9 9 8 9 10 9 9 10 10 10 10 10 10 10 10 11 11 11 11 11 12 11 10
13 11 10 10 9 10 11 11 10 10 10 10 9 9 8 9 10 10 11 12 12 12 13 13 12 11 10 10 10 10 8 6 5 6 6 6 5 6 7 7 7 7 7 8 9 10 10 9 8 8 8 8 9 9 9 10 10 9 9 9 9 8 8 8 9 8 8 9 9 9 10 11 10 10 10 10 11 11 12 12 12 12 12 12 12 11 11
14 13 12 12 11 11 11 10 9 9 9 9 9 8 8 9 10 10 10 12 13 13 13 13 12 11 12 11 10 9 8 7 6 5 5 5 4 5 5 5 6 6 6 8 10 10 10 10 9 8 8 8 9 10 10 11 11 11 10 10 10 10 10 9 9 9 10 10 10 10 11 11 11 11 12 12 13 13 13 13 13 13 13 13 13 12 12
14 13 12 12 13 13 12 10 9 9 8 7 7 7 7 9 10 11 11 12 13 13 13 13 12 12 12 11 10 9 8 7 7 6 6 6 5 5 5 5 5 6 7 9 9 9 9 9 7 7 7 9 10 11 12 12 12 11 11 11 11 11 11 11 11 11 11 11 12 12 12 12 13 14 14 14 14 14 14 14 13 13 14 14 14 13 13
15 14 12 10 12 13 12 11 11 10 8 8 7 7 8 9 10 11 11 11 12 12 12 13 13 13 12 11 10 9 8 8 7 7 7 6 6 6 6 6 7 8 8 8 7 7 8 7 6 6 7 9 10 11 13 14 14 12 11 12 12 12 13 13 13 14 14 14 14 14 14 14 14 14 14 14 13 13 14 14 14 14 14 14 14 14 14
13 14 13 11 11 12 11 11 10 10 9 9 8 8 8 9 9 9 10 11 12 12 13 13 13 13 12 11 10 9 8 8 8 7 7 7 7 7 7 7 8 8 7 6 5 5 6 7 7 7 8 10 10 11 13 15 15 13 12 13 13 14 15 15 15 16 16 16 16 16 16 15 16 15 15 15 15 15 15 15 14 14 15 15 15 15 15
10 11 12 12 11 11 10 10 9 9 8 8 8 8 8 8 8 9 10 10 11 12 13 13 13 12 11 10 10 9 10 9 9 9 8 8 7 8 9 9 9 9 8 7 5 5 6 7 8 9 9 10 11 12 13 15 16 16 15 15 15 16 16 17 17 17 17 17 17 17 18 18 18 18 18 18 18 17 17 17 16 16 16 15 15 15 15
8 9 10 11 10 10 10 9 8 8 9 9 7 6 7 8 9 9 10 10 10 11 13 13 12 11 11 11 10 10 10 10 10 9 9 8 8 8 9 10 10 10 10 9 8 7 8 8 9 9 10 11 12 11 11 13 15 16 15 15 16 16 17 17 17 17 17 17 17 17 18 18 18 18 18 18 18 18 18 18 17 17 16 16 15 15 15
8 9 10 10 10 10 10 9 9 9 10 9 6 6 7 8 9 9 10 11 11 11 11 12 12 11 11 11 11 11 10 10 10 9 8 8 9 9 9 10 10 9 9 9 9 8 9 10 11 11 10 10 10 10 9 10 12 13 13 13 14 15 15 15 15 16 16 16 16 17 17 17 18 18 18 18 18 18 19 19 18 18 18 17 16 16 15
9 9 10 10 10 10 11 11 11 11 10 9 7 7 7 8 8 9 10 10 10 10 10 11 11 10 9 9 10 11 11 10 9 9 9 10 10 10 10 11 8 4 4 6 7 8 8 9 10 10 9 7 8 10 12 12 11 10 11 11 12 12 13 13 13 14 14 14 15 15 16 16 16 16 17 17 18 18 19 19 19 19 18 18 17 16 15
9 10 10 10 10 11 12 12 12 11 10 10 9 9 8 8 8 8 9 9 9 9 10 10 9 9 8 8 8 10 10 9 9 9 9 10 12 12 12 11 8 5 4 5 5 6 6 5 4 6 8 8 9 11 13 12 10 8 9 10 10 10 11 11 11 12 12 12 13 14 14 14 15 15 15 16 16 16 17 18 18 18 18 18 17 17 16
10 11 11 11 12 13 13 12 11 10 9 10 10 10 10 9 9 9 8 8 8 8 8 8 8 8 8 8 9 9 10 9 9 8 8 9 11 11 11 8 6 5 7 6 4 3 2 2 3 6 8 9 9 10 10 8 7 7 7 7 8 8 9 10 10 11 11 11 12 13 13 13 14 15 15 15 15 15 15 16 16 17 17 18 18 18 17
10 12 13 14 14 13 13 12 11 10 10 10 11 10 9 9 9 9 8 8 8 8 8 8 8 8 8 8 7 7 8 8 7 7 7 7 6 5 5 4 3 3 5 4 1 0 1 2 3 5 6 5 6 6 5 4 4 5 6 7 7 8 9 9 10 10 11 11 12 12 13 13 14 14 15 15 15 15 15 15 16 16 17 17 17 17 17
11 12 13 14 13 13 13 12 11 10 10 10 10 10 10 11 10 10 10 10 10 10 9 9 8 7 7 7 6 5 5 5 5 5 6 5 3 2 4 4 3 2 2 1 3 2 1 1 1 2 2 3 4 3 2 3 4 5 5 7 7 8 9 10 10 10 11 11 11 12 13 14 14 15 15 15 15 15 15 15 16 16 16 16 16 17 17
12 11 12 12 12 11 11 10 9 9 9 9 8 9 11 12 12 11 11 11 11 10 8 8 7 7 7 8 6 4 6 7 6 4 4 3 2 3 3 3 2 4 5 6 6 5 3 2 3 3 3 4 4 3 2 3 4 5 6 7 8 8 9 10 10 10 10 11 11 12 13 14 14 15 15 15 15 16 16 16 16 17 17 16 16 16 17
12 12 11 12 11 10 10 10 9 8 9 9 10 11 12 13 13 12 11 10 10 9 8 8 8 8 8 7 5 4 5 7 6 3 5 5 4 5 5 5 7 8 8 7 7 6 5 5 4 5 5 5 4 3 3 4 5 6 6 7 8 9 9 9 9 10 11 12 12 13 13 14 14 15 15 16 16 17 17 17 18 18 17 17 17 16 16
13 12 11 10 10 10 10 9 8 8 9 12 13 13 12 12 12 11 11 11 11 10 10 9 9 9 8 7 6 5 4 3 3 4 6 7 6 7 8 9 10 9 8 8 8 7 6 5 5 6 7 6 4 3 4 5 6 6 7 7 8 9 9 9 9 11 12 12 12 13 14 14 15 15 16 16 17 17 17 17 17 18 18 19 19 19 18
11 11 10 9 9 10 10 9 9 10 12 14 14 13 12 12 11 11 12 12 12 11 10 10 9 9 9 8 7 7 7 6 6 8 9 9 9 9 9 9 9 9 8 7 7 6 5 5 6 7 7 5 4 4 5 6 7 7 7 7 8 9 9 10 11 11 11 11 12 14 15 15 15 15 15 16 16 16 17 17 18 19 19 20 20 20 20
11 11 10 10 11 11 11 11 12 12 13 13 13 12 12 12 12 13 13 13 13 11 11 10 8 8 9 9 9 9 10 10 11 11 11 11 11 11 11 10 9 9 8 7 6 5 4 4 6 7 6 5 5 5 6 7 8 7 7 8 8 9 10 11 11 11 11 12 14 14 14 14 14 14 15 15 16 17 17 18 19 19 20 20 20 21 21
11 10 10 9 9 9 10 11 11 10 10 11 11 11 11 12 14 13 12 12 12 12 11 10 9 9 9 10 11 12 12 12 12 12 12 11 11 11 10 9 8 7 6 5 5 4 4 4 5 6 7 6 6 6 6 7 8 7 7 7 8 9 10 10 10 10 12 14 14 13 13 13 14 15 15 16 17 18 19 19 19 20 20 21 21 21 21
Wind_Direction
122 276 293 285 281 298 305 290 283 277 267 267 264 264 288 305 281 307 12 338 316 34 163 179 175 184 191 184 186 185 177 188 198 213 232 246 300 354 14 19 29 36 35 36 36 33 30 28 28 28 27 29 29 27 27 26 23 21 18 16 16 16 17 15 8 1 354 347 340 337 336 333 331 331 328 325 322 319 315 310 304 299 294 287 277 268 261
216 240 248 258 266 273 280 274 270 269 264 265 265 267 281 285 275 299 331 309 306 12 144 157 149 167 174 162 171 185 192 198 202 217 234 238 291 336 12 19 27 36 36 35 35 34 30 24 22 22 22 24 25 23 22 21 18 16 14 13 13 12 13 11 5 360 357 351 344 339 337 333 329 327 322 320 316 312 307 302 299 297 292 288 283 276 269
202 223 243 244 253 265 276 288 284 256 253 259 261 263 268 261 262 279 298 284 267 150 127 121 128 154 174 174 185 199 203 204 214 233 236 218 248 325 20 28 28 33 36 33 29 28 28 24 20 21 20 22 23 22 20 17 15 12 11 12 11 10 8 5 2 -0 357 353 347 342 337 332 329 325 320 317 312 307 305 302 298 295 288 283 280 277 274
157 166 257 243 242 259 266 277 293 234 225 241 258 262 250 245 258 259 249 259 243 137 138 144 150 170 193 200 202 209 210 209 216 218 209 205 247 340 14 18 22 26 27 31 28 20 18 21 21 19 19 21 22 20 18 16 13 10 12 13 11 9 7 1 -0 359 354 351 348 343 337 333 329 325 319 314 309 304 302 301 297 292 288 282 278 275 272
107 126 271 257 242 254 245 263 332 237 210 241 257 255 237 232 237 225 230 288 44 105 150 172 174 187 206 212 213 218 215 209 206 204 197 202 262 344 353 354 4 13 16 25 28 18 13 18 19 16 18 19 16 14 16 15 12 9 11 12 11 8 4 1 360 356 351 350 348 344 340 335 330 325 319 313 309 304 300 298 293 287 284 281 279 277 273
27 77 264 232 239 277 69 73 17 271 248 267 262 257 241 210 208 233 273 337 47 131 174 181 180 191 206 218 221 221 219 206 196 199 206 216 279 316 329 334 340 358 6 13 21 20 16 15 12 10 15 15 7 6 12 12 10 9 6 6 8 6 2 -0 357 352 349 347 346 343 339 336 331 324 319 314 308 303 298 295 290 286 283 280 277 276 274
307 319 268 237 251 6 63 81 8 273 276 282 279 281 270 226 217 233 253 258 201 182 182 175 175 184 191 218 228 215 208 201 191 192 204 220 244 256 285 312 322 335 342 350 5 14 13 8 3 4 8 6 358 360 6 7 8 6 2 1 5 2 359 357 354 350 348 344 343 339 335 334 332 324 318 314 309 306 302 296 292 289 286 282 277 275 275
297 295 280 282 343 51 85 112 155 177 232 246 262 278 261 224 223 229 232 227 199 185 183 172 151 144 168 212 227 207 196 194 192 193 198 208 234 258 280 305 315 317 322 334 348 358 359 358 -0 1 360 355 352 355 -0 3 3 1 358 359 1 359 356 354 351 348 345 342 340 337 333 332 331 326 322 316 311 308 305 300 297 294 290 287 282 278 277
300 290 285 298 293 157 142 143 171 182 207 215 235 283 280 214 218 225 225 222 197 187 188 168 148 159 200 217 212 195 194 196 195 199 204 206 229 259 268 281 302 309 311 316 324 335 342 345 351 354 351 349 348 350 356 358 356 355 355 356 356 355 353 350 347 344 342 341 339 337 336 333 331 329 325 319 315 312 308 304 300 297 294 290 285 282 280
255 287 287 272 262 218 136 111 149 177 215 211 234 284 287 194 204 221 221 217 200 189 185 171 162 184 224 238 207 178 185 193 193 199 207 211 230 251 256 267 289 297 293 292 299 315 323 332 342 345 344 345 344 347 355 354 349 349 352 352 351 351 348 346 344 341 340 341 340 339 338 335 332 329 326 322 319 316 311 306 301 298 297 293 288 284 281
234 274 284 265 274 312 86 112 145 169 187 182 237 272 249 144 172 228 219 213 202 193 188 180 177 204 234 253 168 149 170 188 192 197 206 207 220 248 255 272 303 320 309 286 279 290 304 320 336 337 335 337 338 344 352 349 344 348 349 348 347 346 344 342 340 340 340 341 342 340 337 335 331 328 326 323 321 317 313 308 304 302 299 296 293 290 285
232 248 275 277 274 281 124 134 145 155 165 192 244 273 86 104 129 229 215 210 201 196 193 187 199 226 247 317 67 122 154 179 185 196 220 221 222 245 247 262 311 321 311 280 268 276 292 313 327 331 331 329 330 340 345 341 343 347 345 343 343 341 341 340 339 341 342 343 345 342 340 339 335 331 329 325 321 319 314 309 307 305 303 300 297 294 291
227 222 259 279 271 161 133 142 143 143 158 205 250 318 59 77 104 198 211 211 197 192 193 193 214 227 146 49 66 127 155 174 179 188 212 228 237 251 263 0 325 311 315 299 280 280 283 301 318 324 326 325 327 336 338 337 341 343 339 339 340 339 340 341 341 343 343 345 347 345 343 343 339 336 333 326 323 322 317 312 310 307 306 306 302 299 297
247 245 266 275 276 118 126 131 132 150 185 236 351 63 70 77 130 161 202 208 191 187 194 202 227 220 108 98 130 157 168 184 188 186 195 211 225 235 239 219 252 305 321 312 281 277 272 286 309 316 318 321 325 330 333 335 337 337 336 337 338 338 339 340 341 342 343 348 350 346 346 346 344 342 340 332 327 326 321 318 316 313 312 312 309 308 306
243 249 248 265 292 125 143 138 133 181 231 347 55 109 111 104 151 168 191 200 189 187 194 202 216 205 150 157 173 172 182 197 204 198 199 217 227 223 231 222 205 309 322 310 280 278 278 288 305 310 311 316 322 327 329 332 330 329 331 333 334 335 335 336 340 340 341 349 353 349 348 348 348 349 348 341 335 333 329 326 323 320 320 321 319 317 316
223 245 232 254 25 135 163 168 167 205 218 10 46 186 154 136 170 179 177 185 186 191 200 205 206 204 193 186 187 191 199 205 210 210 206 216 226 224 247 271 217 291 313 318 288 275 276 288 299 300 301 308 319 324 324 325 322 321 324 329 331 332 332 335 340 341 343 350 353 352 350 350 350 353 353 350 346 342 338 334 330 327 326 326 325 324 322
234 279 306 47 80 136 179 207 252 206 195 186 200 249 193 149 171 184 175 173 178 192 207 208 203 206 206 199 199 204 206 204 207 210 211 218 228 235 260 273 251 264 292 317 293 275 277 285 291 293 297 304 314 319 320 320 316 315 322 327 329 331 334 338 342 344 347 352 355 355 356 354 353 354 354 354 352 349 346 341 336 333 330 328 326 324 324
248 272 267 229 185 174 193 219 239 210 185 183 186 216 236 169 158 172 173 166 172 186 202 208 204 202 202 200 202 204 205 204 203 207 214 219 226 240 257 262 259 266 278 288 284 285 292 294 294 298 298 301 310 317 321 320 314 314 320 324 326 330 333 338 344 347 351 355 353 355 359 359 358 357 356 356 355 351 348 344 340 335 332 329 328 327 326
243 251 225 199 214 214 204 220 227 214 209 203 195 215 234 186 161 173 172 167 173 180 192 205 204 195 193 198 196 194 201 205 204 209 218 221 225 236 247 249 249 254 263 270 273 281 291 294 296 300 301 303 309 317 321 319 313 312 315 317 324 330 332 336 342 346 353 355 348 349 358 359 359 360 359 359 360 356 350 345 340 335 331 329 329 329 328
239 258 252 185 195 213 211 225 230 219 216 212 200 208 221 186 170 176 175 174 175 175 187 201 203 195 194 198 198 198 202 208 208 210 215 219 224 233 239 237 235 239 250 260 266 274 283 287 288 292 298 304 308 313 317 316 309 306 307 307 313 321 324 330 338 341 347 351 347 347 352 351 354 2 3 2 3 4 0 352 341 332 329 328 327 325 324
245 256 253 233 227 227 217 217 229 239 233 219 203 197 199 191 182 180 180 183 185 185 189 196 201 202 198 197 202 205 204 206 209 211 214 221 229 236 238 233 230 235 245 254 260 269 276 279 276 278 289 296 296 297 307 311 302 295 295 294 295 306 314 324 334 336 338 346 350 348 346 344 348 358 360 358 1 5 3 1 355 339 328 327 327 324 322
245 245 241 236 246 254 225 188 202 227 229 218 205 193 190 195 194 187 184 186 193 199 199 196 200 205 201 197 202 207 207 209 213 219 225 230 234 237 237 234 231 235 242 249 256 266 274 273 266 268 279 287 283 285 299 305 293 283 285 285 283 290 308 328 336 331 327 338 346 342 343 345 341 338 341 347 353 353 349 359 9 4 348 343 344 336 326
255 262 263 241 247 270 273 133 151 187 191 201 203 195 194 197 194 191 191 188 191 200 203 202 205 207 202 199 201 207 214 217 222 229 231 235 239 236 232 233 236 237 239 243 249 258 267 266 257 257 269 274 272 280 292 294 283 275 278 284 285 286 304 329 335 323 317 327 335 332 337 342 338 335 334 334 341 345 345 353 5 6 359 1 5 360 347
263 269 269 245 233 256 254 132 132 148 169 193 205 200 199 199 193 194 197 193 193 200 199 200 207 211 208 205 207 213 219 221 227 232 232 237 246 244 234 234 239 242 240 241 248 256 261 260 253 252 262 265 260 268 279 281 277 272 271 277 283 289 298 308 315 313 312 319 324 325 332 338 337 338 336 331 334 339 340 344 351 352 350 352 356 357 355
257 262 264 244 240 251 248 176 195 197 185 199 208 199 199 199 195 196 199 198 201 204 198 197 205 210 213 214 214 219 226 230 232 233 234 238 240 239 236 236 238 242 242 244 256 264 261 253 248 249 258 259 249 251 263 266 266 266 266 270 275 282 292 299 303 306 308 314 318 321 327 332 332 334 335 334 333 330 328 331 336 338 340 341 341 343 345
252 254 243 225 238 246 238 234 237 217 196 200 207 198 195 196 195 198 202 205 207 207 206 206 205 207 214 221 222 224 231 237 235 230 234 238 234 229 231 232 233 237 239 241 253 260 253 246 244 243 251 256 244 240 251 256 256 261 265 266 267 269 278 291 297 297 298 307 316 318 320 323 323 324 327 329 327 322 319 322 326 329 330 331 333 333 333
242 231 218 226 234 231 226 232 240 219 190 196 206 206 194 188 192 199 205 209 210 210 213 217 215 208 211 218 223 228 233 236 234 230 234 238 235 231 231 230 230 233 233 235 244 245 236 237 240 240 246 251 240 234 243 247 248 257 263 266 265 263 266 274 280 282 287 298 306 308 314 319 317 314 317 318 318 319 318 318 323 326 325 324 325 324 323
236 218 216 231 239 236 227 224 233 240 201 203 213 213 192 180 187 198 203 205 207 207 210 214 214 211 210 212 218 225 229 231 233 235 238 240 240 239 237 232 230 230 228 231 242 242 231 233 237 238 245 248 236 232 240 239 243 255 265 270 271 267 262 261 264 270 280 289 294 299 309 313 307 302 305 309 313 315 315 314 319 321 319 320 319 315 316
237 223 218 228 238 245 246 239 246 250 235 215 210 207 197 190 194 202 206 206 206 206 209 208 207 211 216 216 217 224 229 232 235 241 246 248 248 246 240 231 228 228 225 231 243 246 239 238 238 239 246 247 237 233 237 236 241 253 264 272 277 277 271 267 270 278 282 281 281 286 293 294 292 291 298 306 309 310 309 312 316 314 312 316 319 316 318
236 228 225 226 231 237 242 246 252 253 242 220 208 206 207 209 211 213 215 211 207 208 209 206 202 206 213 216 217 224 232 238 243 248 252 253 248 242 233 222 215 215 220 230 242 249 249 248 245 244 248 249 240 234 234 236 244 253 260 265 270 273 274 273 273 278 282 281 278 280 283 283 283 289 296 300 302 303 304 307 309 308 308 314 316 316 321
237 228 228 231 231 233 238 243 249 253 247 231 219 214 213 215 220 225 222 214 208 209 209 204 199 200 205 210 215 220 225 234 242 246 247 246 240 232 224 216 211 212 217 226 238 249 254 254 251 249 249 247 242 234 232 237 247 256 262 267 269 270 275 278 275 272 275 279 280 280 281 283 286 290 293 293 296 300 304 305 306 306 309 311 312 312 317
239 227 224 229 232 233 236 238 242 243 239 227 219 219 219 217 221 229 228 219 210 207 204 201 200 202 203 204 204 204 206 213 222 229 232 232 228 220 215 215 216 218 223 234 245 253 256 256 256 253 245 241 239 235 233 238 247 258 266 273 276 276 278 281 278 270 265 268 272 275 277 280 285 287 288 290 294 297 300 302 303 304 304 304 305 308 310
234 229 224 223 224 226 228 228 230 234 232 223 218 224 226 221 223 230 230 222 212 204 201 202 204 201 195 189 187 187 188 191 202 214 218 218 214 207 206 211 216 218 226 239 250 254 254 256 260 256 245 238 237 235 234 237 245 257 265 270 275 278 275 275 276 272 264 263 267 271 273 276 280 283 284 285 287 289 291 294 296 298 298 296 297 301 298
231 234 235 231 225 225 227 227 227 231 232 227 224 225 223 222 225 230 230 223 214 204 199 201 200 191 181 180 182 180 178 189 212 218 211 206 201 193 191 197 207 217 227 237 244 249 253 255 255 250 243 238 235 234 235 238 245 255 262 266 270 273 271 269 269 268 266 267 271 271 271 271 272 275 278 281 283 283 284 285 285 288 291 291 292 295 290
230 235 239 239 237 236 237 236 235 235 233 228 225 222 219 221 224 225 224 221 216 206 199 196 190 180 175 180 185 183 188 210 232 229 217 213 206 189 184 193 206 221 233 239 242 246 250 251 250 247 242 237 233 233 236 240 246 253 258 260 263 267 268 267 265 265 268 273 275 275 274 273 273 275 277 278 279 278 277 276 277 279 283 286 289 292 290
228 230 232 233 235 237 237 235 236 238 238 235 232 226 221 221 222 219 216 215 213 206 195 183 175 174 178 186 193 195 201 215 224 224 222 219 204 194 204 221 231 240 248 249 245 241 241 243 248 245 238 234 234 234 237 241 245 250 255 259 261 263 265 265 264 264 266 268 269 270 270 268 268 269 268 268 270 272 271 272 273 273 277 281 284 287 289
222 223 225 226 227 230 230 229 229 233 237 240 242 238 231 225 223 219 214 209 205 198 184 172 170 177 185 192 197 200 206 212 217 221 220 212 205 212 229 239 243 247 252 252 246 234 226 228 235 237 234 236 237 237 241 247 250 250 253 258 261 263 264 265 264 264 265 265 265 266 264 262 262 263 261 260 262 263 264 266 269 270 272 275 277 278 280
217 217 219 220 220 222 224 223 223 226 231 236 238 238 235 230 223 215 208 200 193 185 176 172 176 183 188 191 194 201 208 212 215 219 218 214 214 224 235 242 246 249 251 251 246 231 220 223 234 240 237 238 240 242 246 255 259 258 256 259 262 263 263 264 264 265 267 269 269 269 267 267 268 269 268 267 267 265 263 263 265 267 270 272 273 273 273
210 209 209 210 212 214 215 212 210 214 222 228 229 226 220 215 208 202 196 188 180 174 172 175 181 185 186 189 197 207 214 215 216 220 223 221 222 233 245 251 252 255 259 262 256 242 234 240 250 250 242 242 247 249 250 257 264 264 260 259 262 263 263 265 266 266 267 268 269 269 270 271 271 271 271 272 271 269 265 262 260 260 263 267 268 268 268
203 201 198 198 201 205 204 200 199 202 208 213 215 205 194 190 189 186 179 170 165 167 173 178 183 187 192 198 208 218 222 222 223 225 224 220 224 236 249 253 251 250 252 254 250 242 242 250 256 251 245 248 255 255 253 258 266 267 261 258 260 262 264 265 266 267 269 271 271 271 271 272 272 272 272 272 272 271 269 267 262 258 258 261 263 263 264
204 198 192 191 194 196 192 190 191 192 193 191 185 172 167 170 172 172 169 164 162 168 178 185 190 198 205 211 218 226 230 229 226 223 219 222 230 240 249 257 259 248 232 231 236 241 246 253 257 255 254 258 261 258 256 261 266 266 261 259 261 264 267 269 270 271 274 277 278 279 279 279 279 278 277 275 274 274 274 274 272 267 265 265 266 266 265
204 196 190 189 189 185 182 183 185 182 175 165 157 155 159 163 164 166 167 166 167 174 185 194 202 213 222 225 228 234 238 236 227 218 216 225 236 245 254 266 274 260 210 221 242 251 252 255 259 260 262 267 266 263 266 272 273 268 264 265 267 269 272 274 275 277 278 280 281 282 283 284 283 282 280 278 277 276 276 277 277 275 272 271 270 269 266
201 193 189 186 180 176 178 183 184 176 164 157 158 162 165 167 170 172 172 171 175 184 194 200 206 216 228 234 237 242 245 239 228 221 222 230 240 248 256 265 278 283 265 258 259 253 249 250 249 246 251 259 263 266 274 280 279 269 266 269 271 272 274 277 278 281 283 285 286 287 288 288 287 286 285 283 282 282 283 283 283 282 281 279 277 274 270
196 189 184 179 174 175 179 182 182 178 172 167 166 166 168 173 180 183 184 186 190 197 203 206 208 215 223 230 237 246 253 249 237 226 227 237 243 244 244 248 259 263 255 250 245 244 245 243 238 246 257 268 275 279 286 290 282 271 272 276 278 279 283 285 286 287 289 290 291 292 292 292 291 290 290 289 289 290 290 289 288 288 287 285 281 278 274
191 185 179 174 172 176 181 181 182 185 183 176 171 173 180 188 191 192 196 203 206 207 212 219 225 228 231 232 234 244 254 258 249 236 237 248 250 226 198 188 194 226 237 236 226 156 223 240 254 264 274 288 297 299 301 295 281 279 284 288 289 290 292 291 292 294 294 293 294 296 297 297 297 295 294 293 294 293 292 292 292 291 289 286 282 279 277
190 182 175 172 175 179 182 182 181 181 180 179 179 185 193 199 201 201 206 215 220 220 221 224 227 227 221 212 207 215 236 245 239 230 239 254 253 178 177 196 200 190 182 132 110 123 169 236 306 317 321 331 334 333 323 297 293 299 301 299 299 300 299 297 298 298 297 296 298 299 299 298 297 297 295 294 293 291 290 288 288 288 287 285 282 278 275
189 181 176 177 177 172 167 165 167 171 178 188 198 200 199 201 205 207 209 213 218 219 216 209 205 200 197 196 200 225 254 259 246 205 187 195 172 153 179 204 166 130 123 121 121 124 118 83 65 45 20 13 15 9 340 317 320 319 313 307 307 306 304 303 303 303 303 304 304 301 299 297 296 297 298 297 296 295 294 293 292 292 291 289 285 280 275
189 185 183 179 172 161 157 163 173 184 194 205 215 217 211 204 202 203 203 203 204 202 193 184 182 182 185 189 194 209 249 265 262 201 150 145 136 129 132 134 125 119 116 116 114 105 92 84 74 53 39 39 37 11 344 342 339 328 318 316 316 312 309 310 313 314 313 312 308 306 305 305 304 304 304 303 301 301 301 299 297 297 297 296 294 290 284
191 185 177 170 166 165 169 177 189 203 210 214 221 226 222 210 201 200 199 197 197 195 187 179 177 176 178 184 183 172 178 215 223 164 144 140 134 129 129 129 126 122 119 117 112 103 92 78 63 51 47 45 29 2 355 352 340 329 324 323 320 316 314 317 319 318 315 312 310 311 310 308 306 306 306 305 304 304 303 302 301 301 300 299 298 296 292
183 177 173 175 180 184 188 195 206 215 220 223 227 227 219 211 213 214 205 196 194 194 188 180 175 172 171 173 170 161 155 154 149 142 140 137 133 130 129 129 129 129 129 128 122 111 90 62 45 41 40 30 9 359 359 350 337 329 325 324 321 320 321 320 318 316 316 316 315 314 311 309 309 310 309 308 309 309 308 307 307 306 304 302 301 301 300
180 184 189 194 196 197 202 212 220 224 227 229 228 220 211 214 225 225 209 193 190 191 186 178 171 166 161 156 151 147 146 145 143 140 138 136 135 134 132 129 126 123 120 117 114 110 95 64 38 30 28 18 359 350 350 345 336 328 323 323 324 324 324 322 321 322 323 323 320 317 315 315 318 318 316 315 316 316 314 313 313 312 311 310 309 307 306
179 187 192 195 197 201 208 214 219 222 225 225 220 211 207 214 223 219 200 186 191 200 194 179 167 162 158 156 154 150 145 142 141 140 138 136 136 136 134 129 122 116 113 108 101 95 88 64 34 23 20 11 356 344 341 339 334 328 328 332 334 331 328 329 332 334 332 328 325 323 323 325 326 323 321 320 320 320 318 317 316 315 314 314 312 310 308